Location: Chrustowice
(50.2588°N, 20.6918°E)
Time: 11:27:06
(UTC+00:00)

Daily predictions for brighter satellites

Satellite Brightness Start Highest point End
(mag) Time Altitude Azimuth Time Altitude Azimuth Time Altitude Azimuth
Resurs 01 Rocket 1.8 18:04:24 10° SSE 18:08:44 59° ENE 18:13:06 10° N
DELTA 2 DEB (DPAF) 4.3 18:05:08 10° NNE 18:09:14 45° E 18:13:18 10° S
CZ-4B R/B 4.2 18:06:49 10° SSW 18:10:12 37° W 18:13:31 10° NNW
ERS-1 Rocket 4.5 18:12:18 10° ESE 18:15:56 21° ENE 18:19:35 10° N
Cosmos 1300 Rocket 3.6 18:11:50 10° S 18:16:14 89° W 18:20:40 10° N
USA 234 3.5 18:12:16 10° SE 18:18:49 71° SW 18:25:22 10° WNW
USA 281 3.4 18:13:30 10° SE 18:19:58 63° ENE 18:26:28 10° NNW
NOSS 3-1 (C) 3.1 18:18:31 10° SW 18:23:30 82° SE 18:29:36 10° NE
Cosmos 2344 4.4 18:17:15 10° WSW 18:24:23 52° NNW 18:31:57 10° NE
Cosmos 2227 Rocket 3.6 18:20:49 10° NNW 18:25:33 26° NE 18:30:15 10° E
Cosmos 2151 Rocket 4.3 18:21:37 10° SSE 18:25:33 33° E 18:29:33 10° NNE
ATLAS CENTAUR R/B 3.3 18:28:45 10° NNW 18:31:18 17° NNE 18:33:55 10° ENE
CSL-04 Debris 4.3 18:25:58 10° SSE 18:31:24 80° WSW 18:36:55 10° NNW
ATLAS 3B R/B 2.9 18:30:06 10° SSW 18:37:06 65° SE 18:44:37 10° NE
Cosmos 371 Rocket 3.3 18:33:05 10° NNW 18:37:54 69° ENE 18:42:31 11° SSE
Cosmos 1697 Rocket 4.3 18:37:21 12° ESE 18:38:54 13° E 18:41:24 10° ENE
COSMOS 2455 3.5 18:33:56 10° NNW 18:39:45 46° NE 18:44:51 13° ESE
CSL-04 Rocket 3.9 18:34:24 10° S 18:39:54 75° WSW 18:45:23 10° NNW
SL-4 R/B 1.8 18:36:18 10° W 18:39:58 72° N 18:43:07 12° E
Iridium 2 4.0 18:37:50 10° NNE 18:40:30 30° E 18:42:18 16° SE
Cosmos 1777 Rocket 4.1 18:35:22 10° NNW 18:40:38 65° ENE 18:45:33 12° SE
Cosmos 304 Rocket 3.9 18:37:08 10° NNW 18:41:54 62° ENE 18:46:06 13° SE
Okean 2 Rocket 3.3 18:43:12 10° S 18:47:33 51° E 18:51:56 10° NNE
CZ-4C R/B 3.4 18:44:03 10° NW 18:50:31 50° NE 18:57:31 14° ESE
SPOT 5 3.3 18:46:55 12° SE 18:51:40 54° ENE 18:56:45 10° N
Cosmos 2297 Rocket 2.4 18:48:52 10° NNW 18:54:28 58° NE 18:58:47 17° SE
Cosmos 1503 Rocket 4.2 18:52:49 10° NNW 18:58:13 79° WSW 19:03:17 11° SSE
Cosmos 2369 Rocket 4.3 18:54:09 10° WSW 18:59:07 30° NW 19:04:05 10° NNE
Cosmos 405 Rocket 4.2 18:59:06 17° E 18:59:30 17° E 19:02:00 10° NE
Spot 2 Rocket 4.3 18:56:17 17° ESE 18:59:33 34° ENE 19:04:05 10° N
Cosmos 1354 Rocket 4.0 18:55:45 10° NNW 19:01:07 86° ENE 19:05:34 15° SSE
Cosmos 1656 3.9 18:56:31 10° S 19:01:45 44° ESE 19:06:57 10° NE
BlueWalker 3 2.3 18:59:16 10° SW 19:02:51 39° SE 19:06:06 12° ENE
Terra 2.5 19:01:26 19° ESE 19:04:18 38° ENE 19:08:41 10° N
ATLAS 5 CENTAUR R/B 2.1 19:03:45 10° WSW 19:07:03 49° NW 19:10:51 10° NE
Cosmos 2098 Rocket 4.5 19:04:31 10° SW 19:08:50 38° WNW 19:12:26 10° N
Cosmos 2219 4.4 19:04:02 10° NNW 19:09:00 30° NE 19:12:38 16° E
Iridium 4 Rocket 3.8 19:04:24 11° SSE 19:09:39 59° E 19:15:24 10° N
Cosmos 332 Rocket 4.1 19:05:34 10° NNW 19:10:21 54° ENE 19:13:17 22° SE
Cosmos 1455 Rocket 4.2 19:09:46 22° ESE 19:11:02 25° E 19:14:39 10° NNE
Okean 1 Rocket 3.2 19:06:57 11° S 19:11:05 55° E 19:15:27 10° NNE
Sich 1 Rocket 3.5 19:06:41 10° S 19:11:06 87° E 19:15:35 10° N
USA 245 4.0 19:09:42 20° SE 19:13:05 53° ENE 19:17:15 10° N
Okean-O 3.0 19:11:10 10° S 19:15:31 62° WSW 19:19:55 10° NNW
NOSS 8 (F) 4.3 19:15:54 10° NW 19:18:57 75° NE 19:20:28 32° SE
Ariane Rocket 3.3 19:16:23 23° SE 19:19:17 49° ENE 19:24:09 10° N
Cosmos 1763 Rocket 4.1 19:17:54 21° SSE 19:20:25 34° ESE 19:25:01 10° NE
CZ-4C R/B 3.1 19:17:15 10° N 19:20:41 74° WNW 19:24:02 10° SSW
Cosmos 2263 Rocket 3.6 19:16:17 10° NNW 19:20:59 26° NE 19:24:25 15° E
Nadezhda 3 Rocket 4.4 19:17:05 10° SSW 19:23:10 64° WNW 19:29:21 10° N
Cosmos 1437 Rocket 3.4 19:20:32 10° N 19:24:15 40° ENE 19:25:29 30° ESE
USA 267 3.6 19:17:58 10° ENE 19:24:29 68° NNW 19:30:58 10° WSW
Genesis I 3.8 19:21:43 10° NW 19:25:12 44° SW 19:26:55 25° S
Cosmos 44 3.7 19:21:16 10° SSW 19:26:26 48° ESE 19:31:33 10° NE
BREEZE-M R/B 2.4 19:25:19 10° W 19:27:39 38° SSW 19:27:40 38° SSW
Cosmos 990 Rocket 4.0 19:24:02 10° NNW 19:29:12 65° ENE 19:31:51 28° SE
Cosmos 1605 Rocket 4.0 19:23:37 10° N 19:30:03 75° E 19:34:28 21° SSE
Okean O Rocket 3.7 19:27:02 10° SSW 19:30:36 24° W 19:34:13 10° NW
Aureole 1 Rocket 2.8 19:31:22 10° N 19:34:12 38° ENE 19:34:29 37° ENE
Cosmos 540 Rocket 4.0 19:39:04 31° SE 19:40:20 36° ESE 19:45:00 10° NE
Resurs 01 Rocket 4.2 19:42:31 10° SW 19:45:34 18° W 19:48:37 10° NW
MOS 1 Rocket 3.5 19:46:11 37° ESE 19:47:19 46° ENE 19:51:33 10° N
Intercosmos 25 4.4 19:43:58 10° N 19:48:22 31° ENE 19:49:01 30° E
Cosmos 2058 3.2 19:46:05 10° N 19:49:58 44° ENE 19:50:33 41° E
Cosmos 1626 Rocket 4.5 19:47:21 10° N 19:51:21 32° ENE 19:52:02 31° E
CENTAUR R/B 3.5 19:43:58 10° NW 19:51:49 62° NE 19:57:39 24° ESE
Cosmos 468 Rocket 4.3 19:51:31 36° SE 19:52:48 44° ESE 19:57:44 10° NE
NOSS 3-1 (A) 3.8 19:48:43 10° WSW 19:53:48 57° NW 20:00:01 10° NE
ERS-1 Rocket 3.1 19:51:26 27° S 19:54:12 71° WSW 19:59:14 10° NNW
SPOT 3 Rocket 3.5 19:55:09 34° SSE 19:57:32 89° ENE 20:02:45 10° NNW
Cosmos 546 4.4 19:55:33 10° W 19:59:19 89° S 19:59:52 63° ESE
USA 229 DEB 3.4 19:56:18 10° SW 20:02:27 78° SE 20:09:18 10° NE
USA 229 3.4 19:56:24 10° SSW 20:02:33 77° SE 20:09:23 10° NE
Landsat 5 3.5 20:02:34 10° NNE 20:06:46 55° E 20:06:58 54° ESE
Cosmos 2100 Rocket 4.2 20:00:56 10° N 20:07:13 57° ENE 20:09:32 37° SE
Cosmos 1727 Rocket 4.0 20:04:27 33° SSE 20:07:15 63° E 20:13:25 10° NNE
ATLAS CENTAUR R/B 1.0 20:05:53 10° NW 20:09:39 77° NE 20:09:58 70° E
Cosmos 2227 Rocket 2.2 20:04:31 10° NNW 20:10:12 77° WSW 20:12:21 40° SSE
Cosmos 1544 Rocket 4.2 20:12:25 38° E 20:12:25 38° E 20:16:09 10° NNE
Cosmos 1980 Rocket 2.9 20:13:32 33° E 20:13:32 33° E 20:18:14 10° NE
Cosmos 1892 Rocket 4.1 20:12:33 10° NNW 20:16:47 53° W 20:18:10 36° SSW
Cosmos 292 Rocket 3.7 20:12:49 10° NNW 20:17:35 72° ENE 20:18:28 56° SE
H-2A R/B 4.0 20:18:14 21° ENE 20:18:14 21° ENE 20:20:56 10° NNE
SL-4 R/B 2.5 20:15:17 10° WNW 20:17:57 40° WSW 20:17:57 40° WSW
Cosmos 1697 Rocket 2.6 20:18:57 30° SSW 20:21:51 74° ESE 20:27:32 10° NNE
Cosmos 1937 Rocket 3.6 20:17:05 10° NNW 20:22:25 66° ENE 20:23:39 50° ESE
Cosmos 2360 4.2 20:17:22 10° SSW 20:23:04 85° WNW 20:28:49 10° NNE
COSMOS 2455 3.5 20:20:01 10° NW 20:25:43 45° WSW 20:27:59 32° SSW
Okean 1-7 Rocket 4.0 20:22:10 10° N 20:26:34 46° ENE 20:26:45 46° E
ATLAS 3B R/B 3.9 20:21:14 10° WSW 20:28:15 48° NNW 20:35:42 10° NE
MetOp-A 3.3 20:30:40 71° WSW 20:30:43 71° WSW 20:34:32 10° NNW
Cosmos 1602 Rocket 3.9 20:30:03 10° N 20:34:13 50° ENE 20:34:13 50° ENE
Cosmos 405 Rocket 3.7 20:33:26 34° WSW 20:34:25 42° WNW 20:37:59 10° N
Cosmos 1758 Rocket 3.7 20:30:34 10° N 20:34:58 57° ENE 20:35:01 57° E
Cosmos 1898 Rocket 3.5 20:29:45 10° NNW 20:35:01 77° WSW 20:36:04 57° S
Cosmos 2228 3.7 20:38:16 42° ENE 20:38:16 42° ENE 20:41:32 10° NNE
Cosmos 2297 Rocket 3.7 20:33:26 10° NW 20:38:09 28° WSW 20:40:35 20° SW
CZ-4C R/B 3.2 20:32:23 10° NW 20:39:24 63° SW 20:42:37 39° S
ARIANE 5 R/B 3.1 20:39:49 48° ENE 20:39:55 48° ENE 20:44:15 10° N
USA 81 4.1 20:38:46 43° SSW 20:40:29 74° W 20:45:47 10° N
BlueWalker 3 2.2 20:37:10 10° W 20:40:37 63° NW 20:40:37 63° NW
Terra 3.2 20:40:08 24° SW 20:41:58 31° W 20:46:11 10° NNW
Meteor 2-13 Rocket 4.4 20:43:01 45° S 20:45:06 88° E 20:51:18 10° N
Cosmos 2369 4.1 20:45:58 45° E 20:45:58 45° E 20:50:56 10° NE
Meteor 2-1 Rocket 4.0 20:45:48 55° S 20:47:07 88° E 20:52:40 10° NNE
Cosmos 1455 Rocket 4.3 20:46:46 26° WSW 20:48:37 38° WNW 20:52:45 10° N
Cosmos 1725 Rocket 4.0 20:42:59 10° N 20:49:10 68° ENE 20:50:29 53° SE
Cosmos 2233 Rocket 4.4 20:43:36 10° N 20:49:34 48° ENE 20:50:44 43° ESE
Cosmos 1459 Rocket 3.9 20:44:21 10° N 20:50:27 82° W 20:52:04 52° S
ATLAS 5 CENTAUR R/B 4.3 20:49:31 10° NW 20:51:59 16° NNW 20:54:42 10° NNE
Cosmos 1825 Rocket 4.5 20:49:17 10° N 20:52:59 37° ENE 20:52:59 37° ENE
Cosmos 2219 3.3 20:47:58 10° NW 20:53:34 63° WSW 20:54:33 54° SSW
Cosmos 2061 Rocket 4.2 20:49:21 10° N 20:55:44 59° ENE 20:57:03 50° ESE
ALOS 2 4.1 20:58:36 26° ENE 20:58:36 26° ENE 21:02:11 10° N
Cosmos 858 Rocket 4.4 20:57:08 10° NNW 21:02:26 77° WSW 21:02:52 71° SSW
Cosmos 2263 Rocket 2.1 20:59:53 10° NNW 21:05:30 74° WSW 21:06:06 67° SSW
Cosmos 1862 4.2 21:02:35 10° N 21:05:30 44° NNE 21:05:30 44° NNE
USA 267 4.1 21:00:47 10° ENE 21:07:03 50° N 21:13:18 10° WNW
Cosmos 2082 3.6 21:06:20 10° NNW 21:11:58 68° WSW 21:12:29 64° SSW
Cosmos 2173 Rocket 4.5 21:08:58 10° NNW 21:15:10 54° W 21:17:01 41° SW
Cosmos 1271 Rocket 4.3 21:12:11 10° N 21:14:33 29° NNE 21:14:33 29° NNE
NOSS 3-2 (A) 4.0 21:10:13 10° NW 21:17:31 81° SW 21:19:59 51° SSE
Meteor 2-3 Rocket 4.0 21:13:14 10° NNW 21:18:49 60° W 21:19:41 54° SW
Cosmos 2333 Rocket 4.5 21:21:48 11° ENE 21:21:48 11° ENE 21:22:18 10° ENE
Cosmos 2322 Rocket 4.1 21:22:12 17° ENE 21:22:12 17° ENE 21:24:23 10° ENE
Cosmos 1606 4.0 21:23:39 36° NNW 21:23:39 36° NNW 21:26:10 10° N
Spot 4 4.0 21:30:18 67° NE 21:30:18 67° NE 21:34:46 10° N
Meteor 2-19 Rocket 4.3 21:32:04 67° ESE 21:32:28 70° E 21:38:32 10° NNE
SL-16 R/B 3.1 21:41:08 35° E 21:41:08 35° E 21:45:11 10° NE
Cosmos 1844 4.3 21:35:03 10° NNW 21:40:38 49° NE 21:41:36 44° E
USA 238 DEB 4.2 21:35:06 10° NW 21:42:15 62° NE 21:45:34 35° ESE
USA 238 4.2 21:35:12 10° NW 21:42:20 61° NE 21:45:42 35° ESE
CENTAUR R/B 3.6 21:34:45 10° NW 21:42:44 53° WSW 21:44:48 45° SSW
Cosmos 1953 Rocket 4.2 21:38:40 10° N 21:42:01 51° NNE 21:42:01 51° NNE
Cosmos 841 Rocket 4.1 21:43:35 44° W 21:44:31 50° WNW 21:49:33 10° NNE
Cosmos 2016 Rocket 4.4 21:39:03 10° NNW 21:44:56 51° W 21:45:55 47° WSW
ATLAS CENTAUR R/B 4.0 21:44:51 10° W 21:45:04 11° W 21:45:04 11° W
Cosmos 1844 Rocket 2.9 21:44:33 10° NNW 21:50:07 61° NE 21:50:30 59° ENE
Cosmos 1125 Rocket 3.8 21:46:25 10° NNW 21:51:35 58° ENE 21:51:35 58° ENE
H-2A R/B 4.0 21:54:16 28° NW 21:54:16 28° NW 21:56:26 10° NNW
Cosmos 2227 Rocket 4.3 21:50:32 10° WNW 21:53:17 14° W 21:54:10 13° WSW
Cosmos 1980 Rocket 2.9 21:55:14 36° WSW 21:57:02 49° NW 22:02:33 10° NNE
Cosmos 2346 Rocket 4.5 21:57:50 63° ESE 21:58:03 64° E 22:04:14 10° NNE
Timation 2 Rocket 4.4 21:55:20 10° NNW 22:01:55 58° NE 22:03:23 47° E
Cosmos 2278 3.7 22:02:49 69° ENE 22:02:49 69° ENE 22:08:01 10° NNE
Cosmos 2151 4.0 22:03:39 10° NNW 22:06:35 43° NNW 22:06:35 43° NNW
Cosmos 2237 4.1 22:29:24 84° NNE 22:29:24 84° NNE 22:34:58 10° NNE
H-2A R/B 3.1 22:27:59 10° NNE 22:30:49 41° NNE 22:30:49 41° NNE
Lacrosse 4 Rocket 2.8 22:33:41 35° N 22:33:41 35° N 22:36:23 10° NNE
Cosmos 2150 Rocket 4.1 22:28:00 10° NNW 22:32:46 69° NNE 22:32:46 69° NNE
NOSS 3-2 (C) 4.1 22:26:19 10° NW 22:33:37 61° SW 22:34:31 58° SSW
ALOS 2 4.0 22:35:59 32° WNW 22:35:59 32° WNW 22:38:51 10° NNW
Cosmos 2298 Rocket 4.1 22:31:39 10° NNW 22:36:37 74° NNE 22:36:37 74° NNE
ATLAS 5 CENTAUR R/B 4.5 22:34:50 10° NNW 22:37:32 16° NNE 22:40:32 10° NE
Helios 1A Rocket 4.5 22:44:37 31° NE 22:44:37 31° NE 22:47:21 10° N
Cosmos 1464 Rocket 3.9 22:38:12 10° NNW 22:44:36 80° W 22:44:59 76° SW
Cosmos-2242 4.2 22:46:33 39° NNE 22:46:33 39° NNE 22:49:21 10° NNE
Cosmos 2058 Rocket 4.1 22:47:28 41° NNW 22:47:28 41° NNW 22:50:40 10° N
Cosmos 2263 Rocket 4.4 22:45:59 10° WNW 22:47:47 13° W 22:47:47 13° W
USA 267 3.6 22:43:08 10° E 22:49:35 63° NNE 22:56:03 10° WNW
Cosmos 2360 Rocket 2.4 22:51:06 62° E 22:51:06 62° E 22:56:11 10° NNE
Cosmos 1867 4.3 22:52:57 10° NW 22:58:20 51° NE 22:59:55 39° E
Meteor 2-21 4.3 22:58:06 74° WSW 22:58:29 78° W 23:04:44 10° N
Meteor 2-21 Rocket 4.3 22:59:01 78° SE 22:59:21 82° E 23:05:36 10° NNE
Aureole 3 Rocket 4.2 22:55:01 10° N 22:58:11 39° NNE 22:58:11 39° NNE
Meteor 1-20 Rocket 4.4 22:53:51 10° NNW 22:59:08 63° W 22:59:08 63° W
Cosmos 1570 Rocket 4.2 23:02:43 64° NW 23:02:43 64° NW 23:07:42 10° NNE
Cosmos 2333 Rocket 2.3 23:03:47 68° E 23:03:47 68° E 23:09:04 10° NNE
Cosmos 2322 Rocket 2.1 23:03:59 81° NW 23:03:59 81° NW 23:09:35 10° NNE
Cosmos 2278 Rocket 3.9 22:59:30 10° NNW 23:04:29 30° NE 23:09:02 12° ESE
Lacrosse 5 2.4 23:05:57 52° ENE 23:05:57 52° ENE 23:09:50 10° ENE
Cosmos 2219 Rocket 2.8 23:05:42 44° E 23:05:42 44° E 23:10:31 10° NE
Cosmos 2034 Rocket 3.8 23:00:32 10° NNW 23:06:43 79° W 23:07:00 77° SW
Meteor 1-25 Rocket 4.4 23:05:52 10° NNW 23:11:03 60° WNW 23:11:03 60° WNW
USA 32 4.0 23:12:06 76° NE 23:12:06 76° NE 23:17:02 10° N
Cosmos 2221 3.9 23:13:29 32° ENE 23:13:29 32° ENE 23:16:29 10° NNE
CZ-2D R/B 4.3 23:10:46 10° NE 23:13:45 15° E 23:15:10 14° ESE
Geosat 4.1 23:20:32 66° NW 23:20:32 66° NW 23:24:54 10° NNW
Cosmos 1782 4.3 23:24:05 34° N 23:24:05 34° N 23:26:25 10° N
SL-16 R/B 3.0 23:22:58 39° W 23:24:00 44° NW 23:29:27 10° NNE
MOZ.5/SAFIR/RUBIN 5/SL-8 4.5 23:27:03 46° E 23:27:22 47° ENE 23:31:56 10° N
Cosmos 1634 Rocket 3.9 23:21:20 10° N 23:27:42 82° E 23:28:37 67° SSE
USA 238 DEB 4.3 23:26:14 10° NW 23:32:58 45° WSW 23:32:58 45° WSW
USA 238 4.2 23:26:20 10° NW 23:33:06 46° WSW 23:33:06 46° WSW
Cosmos 1844 Rocket 4.2 23:29:02 10° NW 23:32:09 23° W 23:32:09 23° W
IDEFIX/ARIANE 42P 3.9 23:34:30 10° NE 23:38:58 28° E 23:39:49 27° ESE
Resurs 1-4 Rocket 3.7 23:35:02 10° NE 23:39:18 24° E 23:40:30 22° ESE
Cosmos 158 Rocket 4.3 23:41:25 50° WNW 23:41:25 50° WNW 23:46:17 10° NNE
Cosmos 1943 Rocket 3.8 23:36:55 10° NNW 23:42:01 33° NE 23:47:05 10° ESE
Gbstr 26 Del rocket 4.4 23:49:29 29° E 23:49:29 29° E 23:51:33 10° ENE
NOSS 2-2 (E) 3.9 23:46:58 10° NW 23:51:09 72° NE 23:52:10 55° ESE
Cosmos 1766 Rocket 4.0 23:47:52 10° NNW 23:51:19 56° NNW 23:51:19 56° NNW
Cosmos 1743 4.0 23:51:08 10° N 23:53:28 37° N 23:53:28 37° N
